Weather History for KM25 - April, 2014

Change the Weather History Date:

Wednesday, April 2, 2014

  Actual Average (KPAH) Record (KPAH)
Temperature  
Mean Temperature 66 °F 54 °F  
Max Temperature 77 °F 65 °F 86 °F (2012)
Min Temperature 55 °F 42 °F 26 °F (1961)
Degree Days  
Heating Degree Days 0 12  
Month to date heating degree days 24  
Since 1 July heating degree days 3843  
Cooling Degree Days 1 1  
Month to date cooling degree days 2  
Year to date cooling degree days 9  
Growing Degree Days 16 (Base 50)    
Moisture  
Dew Point 55 °F    
Average Humidity 73    
Maximum Humidity 100    
Minimum Humidity 57    
Precipitation  
Precipitation 0.00 in 0.15 in 3.77 in (1945)
Month to date precipitation 0.30  
Year to date precipitation 11.82  
Snow  
Snow 0.00 in 0.00 in T in (1951)
Month to date snowfall 0.0  
Since 1 July snowfall 9.1  
Snow Depth -    
Sea Level Pressure  
Sea Level Pressure 29.97 in    
Wind  
Wind Speed 7 mph (SE)    
Max Wind Speed 18 mph    
Max Gust Speed 24 mph    
Visibility 9 miles    
Events Rain    
T = Trace of Precipitation, MM = Missing Value Source: NWS Daily Summary

Daily Weather History Graph

Daily Weather History Graph

Search for Another Location

Airport or City:

Trip Planner

Search our weather history database for the weather conditions in past years. The results will help you decide how hot, cold, wet, or windy it might be!

Date:

Astronomy

Apr. 02, 2014 Rise Set
Actual Time 6:38 AM CDT 7:17 PM CDT
Civil Twilight 6:12 AM CDT 7:43 PM CDT
Nautical Twilight 5:41 AM CDT 8:14 PM CDT
Astronomical Twilight 5:10 AM CDT 8:46 PM CDT
Moon 8:27 AM CDT (4/2) 10:35 PM CDT (4/2)
Length of Visible Light 13h 31m
Length of Day
12h 38m
Waxing Crescent, 10% of the Moon is Illuminated
Apr 2
Waxing Crescent
Apr 7
First Quarter
Apr 15
Full
Apr 22
Last Quarter
Apr 29
New

Hourly Weather History & Observations

Time (CDT) Temp. Dew Point Humidity Pressure Visibility Wind Dir Wind Speed Gust Speed Precip Events Conditions
12:15 AM 55.4 °F 42.8 °F 63% 30.02 in 10.0 mi East 8.1 mph - N/A   Clear
12:35 AM 55.4 °F 42.8 °F 63% 30.02 in 10.0 mi East 5.8 mph - N/A   Clear
12:55 AM 55.4 °F 42.8 °F 63% 30.02 in 10.0 mi ENE 5.8 mph - N/A   Mostly Cloudy
1:15 AM 55.4 °F 42.8 °F 63% 30.02 in 10.0 mi East 6.9 mph - N/A   Overcast
1:35 AM 55.4 °F 44.6 °F 67% 30.01 in 10.0 mi East 5.8 mph - N/A   Overcast
1:55 AM 55.4 °F 44.6 °F 67% 30.02 in 10.0 mi East 4.6 mph - N/A   Overcast
2:15 AM 55.4 °F 44.6 °F 67% 30.01 in 10.0 mi East 3.5 mph - N/A   Overcast
2:35 AM 55.4 °F 44.6 °F 67% 30.01 in 10.0 mi East 6.9 mph - N/A   Overcast
2:55 AM 57.2 °F 44.6 °F 63% 30.01 in 10.0 mi East 3.5 mph - N/A   Overcast
3:15 AM 57.2 °F 44.6 °F 63% 30.00 in 10.0 mi East 3.5 mph - N/A   Overcast
3:35 AM 57.2 °F 44.6 °F 63% 30.00 in 10.0 mi East 3.5 mph - N/A   Overcast
3:55 AM 57.2 °F 44.6 °F 63% 30.00 in 10.0 mi East 3.5 mph - N/A   Overcast
4:15 AM 57.2 °F 44.6 °F 63% 30.00 in 10.0 mi ENE 3.5 mph - N/A   Overcast
4:35 AM 57.2 °F 44.6 °F 63% 30.00 in 10.0 mi East 4.6 mph - N/A   Overcast
4:55 AM 55.4 °F 44.6 °F 67% 30.00 in 10.0 mi East 5.8 mph - N/A   Overcast
5:15 AM 55.4 °F 46.4 °F 72% 30.00 in 10.0 mi East 4.6 mph - N/A   Overcast
5:35 AM 57.2 °F 46.4 °F 67% 30.00 in 10.0 mi ESE 5.8 mph - N/A   Overcast
5:55 AM 57.2 °F 46.4 °F 67% 30.01 in 10.0 mi SE 3.5 mph - N/A   Overcast
6:15 AM 57.2 °F 46.4 °F 67% 30.01 in 10.0 mi ESE 4.6 mph - N/A   Overcast
7:55 AM 59.0 °F 48.2 °F 67% 30.03 in 10.0 mi East 3.5 mph - N/A   Overcast
8:15 AM 59.0 °F 48.2 °F 67% 30.03 in 10.0 mi ESE 3.5 mph - N/A   Overcast
8:35 AM 59.0 °F 50.0 °F 72% 30.02 in 10.0 mi ESE 4.6 mph - N/A   Overcast
8:55 AM 62.6 °F 50.0 °F 63% 30.01 in 10.0 mi SE 4.6 mph - N/A   Mostly Cloudy
9:15 AM 62.6 °F 51.8 °F 68% 30.01 in 10.0 mi SSE 4.6 mph - N/A   Mostly Cloudy
9:35 AM 64.4 °F 53.6 °F 68% 30.01 in 10.0 mi South 5.8 mph - N/A   Mostly Cloudy
9:55 AM 66.2 °F 53.6 °F 64% 30.01 in 10.0 mi South 5.8 mph - N/A   Overcast
10:15 AM 69.8 °F 57.2 °F 64% 30.01 in 10.0 mi South 9.2 mph - N/A   Mostly Cloudy
10:35 AM 71.6 °F 59.0 °F 64% 30.01 in 10.0 mi SSW 8.1 mph - N/A   Mostly Cloudy
10:55 AM 71.6 °F 59.0 °F 64% 29.99 in 10.0 mi SSW 9.2 mph - N/A   Mostly Cloudy
11:15 AM 71.6 °F 60.8 °F 69% 29.99 in 10.0 mi SW 10.4 mph 16.1 mph N/A   Scattered Clouds
11:55 AM 73.4 °F 60.8 °F 65% 29.98 in 10.0 mi SW 13.8 mph 20.7 mph N/A   Mostly Cloudy
12:15 PM 73.4 °F 60.8 °F 65% 29.99 in 10.0 mi SSW 15.0 mph 19.6 mph N/A   Overcast
12:55 PM 75.2 °F 60.8 °F 61% 29.99 in 10.0 mi SW 10.4 mph - N/A   Overcast
1:15 PM 73.4 °F 60.8 °F 65% 29.98 in 10.0 mi SW 11.5 mph 16.1 mph N/A   Overcast
1:35 PM 77.0 °F 60.8 °F 57% 29.98 in 10.0 mi SW 13.8 mph 20.7 mph N/A   Overcast
1:55 PM 75.2 °F 60.8 °F 61% 29.98 in 10.0 mi SW 15.0 mph 21.9 mph N/A   Overcast
2:35 PM 75.2 °F 60.8 °F 61% 29.96 in 10.0 mi SSW 18.4 mph 24.2 mph N/A   Mostly Cloudy
2:55 PM 77.0 °F 60.8 °F 57% 29.95 in 10.0 mi South 9.2 mph - N/A   Mostly Cloudy
3:15 PM 77.0 °F 60.8 °F 57% 29.94 in 10.0 mi SSW 12.7 mph 23.0 mph N/A   Mostly Cloudy
3:35 PM 77.0 °F 60.8 °F 57% 29.94 in 10.0 mi South 11.5 mph - N/A   Overcast
3:55 PM 77.0 °F 60.8 °F 57% 29.93 in 10.0 mi South 13.8 mph 19.6 mph N/A   Overcast
4:15 PM 75.2 °F 60.8 °F 61% 29.92 in 10.0 mi South 9.2 mph 18.4 mph N/A   Mostly Cloudy
4:35 PM 73.4 °F 59.0 °F 61% 29.92 in 10.0 mi South 13.8 mph - N/A   Mostly Cloudy
4:55 PM 73.4 °F 59.0 °F 61% 29.91 in 10.0 mi South 9.2 mph - N/A Rain Rain
5:15 PM 69.8 °F 62.6 °F 78% 29.91 in 4.0 mi South 4.6 mph - N/A Rain Rain
5:35 PM 68.0 °F 62.6 °F 83% 29.92 in 2.0 mi SSW 3.5 mph - N/A Rain Heavy Rain
5:55 PM 68.0 °F 64.4 °F 88% 29.92 in 10.0 mi South 8.1 mph - N/A Rain Rain
6:15 PM 68.0 °F 62.6 °F 83% 29.93 in 10.0 mi South 6.9 mph - N/A Rain Rain
6:35 PM 66.2 °F 64.4 °F 94% 29.92 in 7.0 mi SSE 5.8 mph - N/A Rain Rain
6:55 PM 64.4 °F 62.6 °F 94% 29.92 in 10.0 mi South 4.6 mph - N/A Rain Light Rain
7:15 PM 64.4 °F 62.6 °F 94% 29.94 in 3.0 mi SSW 6.9 mph - N/A Rain Heavy Rain
7:35 PM 64.4 °F 62.6 °F 94% 29.90 in 3.0 mi SSE 9.2 mph - N/A Rain Heavy Rain
7:55 PM 64.4 °F 62.6 °F 94% 29.93 in 7.0 mi NW 16.1 mph 20.7 mph N/A Rain Rain
8:15 PM 64.4 °F 62.6 °F 94% 29.91 in 7.0 mi ENE 6.9 mph - N/A Rain Light Rain
8:55 PM 62.6 °F 62.6 °F 100% 29.93 in 4.0 mi East 10.4 mph - N/A Rain Heavy Rain
9:15 PM 62.6 °F 62.6 °F 100% 29.94 in 10.0 mi East 9.2 mph - N/A Rain Light Rain
9:35 PM 62.6 °F 62.6 °F 100% 29.94 in 10.0 mi East 5.8 mph - N/A Rain Rain
9:55 PM 62.6 °F 62.6 °F 100% 29.94 in 10.0 mi East 3.5 mph - N/A Rain Light Rain
10:15 PM 62.6 °F 62.6 °F 100% 29.95 in 7.0 mi Calm Calm - N/A Rain Rain
10:35 PM 62.6 °F 62.6 °F 100% 29.95 in 3.0 mi Calm Calm - N/A Rain Rain
10:55 PM 62.6 °F 62.6 °F 100% 29.94 in 1.5 mi SE 4.6 mph - N/A Rain Heavy Rain
11:15 PM 64.4 °F 62.6 °F 94% 29.94 in 7.0 mi NE 4.6 mph - N/A   Overcast
11:35 PM 64.4 °F 62.6 °F 94% 29.94 in 10.0 mi Calm Calm - N/A Rain Rain
11:55 PM 64.4 °F 62.6 °F 94% 29.94 in 10.0 mi SE 5.8 mph - N/A   Overcast